Flag for Albania Weather past 2 weeks in Durrës, Albania

Now
61 °F

Partly cloudy.


Feels Like: 61 °F
Forecast: 55 / 61 °F
Wind: 5 mph from South

Location: Tirana Airport

Current Time: Oct 22, 2014 at 2:02:00 AM

Latest Report: Oct 22, 2014 at 1:20 AM


Visibility: N/A

Pressure: 29.86 "Hg

Humidity: 88%

Dew point: 57 °F

Location of DurrësLocation

Historic Weather in Durrës — Graph

°F

Durrës temperature yesterday

Maximum temperature yesterday: 75 °F (at 1:20 PM)
Minimum temperature yesterday: 48 °F (at 7:20 AM)
Average temperature yesterday: 60 °F

Past Weeks' High & Low Weather Summary

 TemperatureHumidityPressure
High82 °F (Oct 9, 1:20 PM)100% (Oct 8, 5:20 AM)30.27 "Hg (Oct 8, 5:20 AM)
Low48 °F (Oct 19, 7:20 AM)24% (Oct 19, 1:20 PM)29.86 "Hg (Oct 22, 12:20 AM)
Average66 °F76%30.07 "Hg
* Reported Oct 7 12:20 AM — Oct 22 12:50 AM, Durrës, Weather by CustomWeather, © 2014

Note: Actual official high and low records may vary slightly from our data, if they occured in-between our weather recording intervals... More about our weather records

Advertising

Durrës weather history for previous 24 hours

 ConditionsComfort  
Time TempWeatherWind HumidityBarometerVisibility
12:50 AM
Oct 22
61 °FPartly cloudy.3 mph88%29.86 "HgN/A
12:20 AM61 °FPartly cloudy.2 mph88%29.86 "Hg5 mi
11:50 PM
Oct 21
59 °FPassing clouds.2 mph94%29.89 "Hg4 mi
11:20 PM59 °FPassing clouds.2 mph94%29.89 "Hg5 mi
10:50 PM59 °FPassing clouds.No wind88%29.89 "Hg5 mi
10:20 PM59 °FPassing clouds.3 mph88%29.89 "Hg4 mi
9:50 PM57 °FPassing clouds.3 mph94%29.89 "Hg4 mi
9:20 PM59 °FClear.3 mph88%29.92 "Hg4 mi
8:50 PM61 °FClear.3 mph88%29.92 "Hg5 mi
8:20 PM61 °FPassing clouds.2 mph94%29.92 "HgN/A
7:50 PM63 °FPassing clouds.2 mph88%29.92 "HgN/A
7:20 PM63 °FPassing clouds.3 mph88%29.92 "HgN/A
6:50 PM64 °FScattered clouds.3 mph83%29.92 "HgN/A
6:20 PM66 °FScattered clouds.3 mph78%29.92 "HgN/A
5:50 PM68 °FPassing clouds.3 mph73%29.92 "HgN/A
5:20 PM70 °FPassing clouds.2 mph69%29.92 "HgN/A
4:50 PM72 °FPassing clouds.5 mph65%29.92 "HgN/A
3:50 PM72 °FPassing clouds.6 mph61%29.92 "HgN/A
3:20 PM72 °FPassing clouds.5 mph57%29.95 "HgN/A
2:50 PM72 °FPassing clouds.3 mph53%29.95 "HgN/A
2:20 PM73 °FPassing clouds.5 mph53%29.95 "HgN/A
1:50 PM73 °FPassing clouds.3 mph53%29.95 "HgN/A
1:20 PM75 °FPassing clouds.2 mph50%29.98 "HgN/A
12:50 PM73 °FPassing clouds.2 mph50%29.98 "HgN/A
12:20 PM72 °FPassing clouds.3 mph53%30.01 "HgN/A
11:50 AM70 °FPassing clouds.3 mph53%30.01 "HgN/A
11:20 AM70 °FPassing clouds.No wind60%30.01 "HgN/A
10:50 AM68 °FPassing clouds.3 mph60%30.01 "HgN/A
10:20 AM66 °FPassing clouds.3 mph64%30.01 "HgN/A
9:50 AM64 °FSunny.5 mph68%30.04 "Hg10 mi
9:20 AM61 °FSunny.5 mph77%30.04 "Hg10 mi
8:50 AM57 °FSunny.3 mph88%30.01 "Hg10 mi
8:20 AM54 °FSunny.2 mph94%30.01 "Hg10 mi
7:50 AM50 °FClear.3 mph94%30.01 "Hg5 mi
7:20 AM48 °FClear.2 mph94%30.01 "Hg5 mi
6:50 AM50 °FClear.2 mph94%30.01 "Hg5 mi
6:20 AM50 °FClear.2 mph94%30.01 "Hg10 mi
5:50 AM50 °FClear.3 mph88%30.01 "Hg10 mi
5:20 AM50 °FClear.3 mph94%30.04 "Hg10 mi
4:50 AM52 °FClear.3 mph94%30.04 "Hg5 mi
4:20 AM52 °FClear.3 mph88%30.04 "Hg4 mi
3:50 AM50 °FClear.2 mph94%30.04 "Hg4 mi
3:20 AM52 °FClear.3 mph88%30.04 "Hg5 mi
2:50 AM50 °FClear.3 mph94%30.07 "Hg10 mi
2:20 AM52 °FClear.3 mph94%30.07 "Hg10 mi
Weather by CustomWeather, © 2014

See weather overviewHow to use our weather pages